Location: North Runcton
(52.7000°N, 0.4333°E)
Time: 15:00:04
(UTC+00:00)

Cosmos 1470 - Pass Details

Date: 19 May 2025
Orbit: 455 x 466 km, 82.5° (Epoch: 17 June)

Event Time Altitude Azimuth Distance (km) Brightness Sun altitude
Rises 23:01:42 0° 351° (N) 2,520 8.0 -16.4°
Reaches altitude 10° 23:03:49 10° 355° (N) 1,640 6.6 -16.5°
Maximum altitude 23:07:22 61° 76° (ENE) 538 2.7 -16.6°
Enters shadow 23:08:33 37° 142° (SE) 747 3.0 -16.6°
